Terug naar catalogus

DELTA 1 DEB

ActiefUNKNOWN
NORAD 27481·DEBRIS·🇺🇸 United States

Gelanceerd Jul 4, 1968 vanaf Vandenberg Space Force Base

Loading…

Volgende Passages (komende 24 uur)

TLE

VersSource: Space-Track

Epoch: Sep 6, 2026, 14:04 UTC

1 27481U 68055J   26249.58644068  .00002511  00000-0  36113-2 0  9995
2 27481 120.6793 121.0827 1697337  37.8493 333.0403 11.08674120520994

Volg DELTA 1 DEB in realtime met AllMySat

Download on the App Store